This demonstration page uses our WeatherBlox Daily Observations layout. Learn more.

Left ArrowRight Arrow

Hourly Observations for March 21, 2020

Temp ( °F °C ) Dew Point ( °F °C ) Humidity (%) Winds ( mph kmh ) Pressure ( in mb ) Visibility ( mi km ) Precip ( " mm )
12:51 am 00:51 Clear 52 11.1 45 7.2 77 77 E 6 9 30.01 1016 10 16 0.00 0.00
1:51 am 01:51 Clear 51 10.6 45 7.2 80 80 SSE 5 7 29.98 1015 10 16 0.00 0.00
2:51 am 02:51 Clear 50 10 45 7.2 83 83 Calm 29.97 1015 10 16 0.00 0.00
3:51 am 03:51 Clear 50 10 44 6.7 80 80 SSW 3 6 29.98 1015 10 16 0.00 0.00
4:51 am 04:51 Clear 49 9.4 44 6.7 83 83 S 5 7 29.98 1015 10 16 0.00 0.00
5:51 am 05:51 Clear 48 8.9 44 6.7 86 86 NNW 5 7 30.01 1016 10 16 0.00 0.00
6:51 am 06:51 Sunny 48 8.9 43 6.1 83 83 Calm 30.04 1017 10 16 0.00 0.00
7:51 am 07:51 Sunny 51 10.6 45 7.2 80 80 SE 5 7 30.05 1018 10 16 0.00 0.00
8:51 am 08:51 Sunny 57 13.9 44 6.7 62 62 SE 7 11 30.03 1017 10 16 0.00 0.00
9:51 am 09:51 Sunny 62 16.7 43 6.1 50 50 ESE 8 13 30.01 1016 10 16 0.00 0.00
10:51 am 10:51 Sunny 66 18.9 43 6.1 43 43 S 6 9 30.00 1016 10 16 0.00 0.00
11:51 am 11:51 Sunny 68 20 41 5 38 38 VRB 3 6 29.98 1015 10 16 0.00 0.00
12:51 pm 12:51 Sunny 71 21.7 38 3.3 30 30 NE 5 7 29.95 1014 10 16 0.00 0.00
1:51 pm 13:51 Sunny 72 22.2 33 0.6 24 24 Calm 29.91 1013 10 16 0.00 0.00
2:51 pm 14:51 Sunny 73 22.8 27 -2.8 18 18 VRB 5 7 29.90 1013 10 16 0.00 0.00
3:51 pm 15:51 Sunny 74 23.3 31 -0.6 20 20 NNW 6 9 29.89 1012 10 16 0.00 0.00
4:51 pm 16:51 Sunny 73 22.8 32 0 22 22 WNW 12 19 29.88 1012 10 16 0.00 0.00
5:51 pm 17:51 Sunny 70 21.1 30 -1.1 23 23 NW 13 20 29.90 1013 10 16 0.00 0.00
6:51 pm 18:51 Clear 64 17.8 32 0 30 30 NW 13 20 29.93 1014 10 16 0.00 0.00
7:51 pm 19:51 Clear 62 16.7 35 1.7 37 37 NW 14 22 29.96 1015 10 16 0.00 0.00
8:51 pm 20:51 Clear 60 15.6 37 2.8 42 42 NW 14 22 29.99 1016 10 16 0.00 0.00
9:51 pm 21:51 Clear 58 14.4 37 2.8 46 46 NW 13 20 30.00 1016 10 16 0.00 0.00
10:51 pm 22:51 Clear 56 13.3 36 2.2 47 47 NW 7 11 30.01 1016 10 16 0.00 0.00
11:51 pm 23:51 Clear 53 11.7 36 2.2 52 52 W 7 11 30.02 1017 10 16 0.00 0.00

Powered by AerisWeather